Nottely Observed Data For Previous 48 Hours

Caption
Day and Hour Reservoir Elevation (behind dam)* Tailwater Elevation (below dam)* Average Hourly Discharge*
2/16/2019 2 AM EST 1,760.26 1,611.10 1,470
2/16/2019 3 AM EST 1,760.26 1,611.14 1,338
2/16/2019 4 AM EST 1,760.24 1,611.12 1,329
2/16/2019 5 AM EST 1,760.24 1,611.12 1,330
2/16/2019 6 AM EST 1,760.24 1,611.12 1,330
2/16/2019 7 AM EST 1,760.23 1,611.16 1,333
2/16/2019 8 AM EST 1,760.23 1,611.13 1,331
2/16/2019 9 AM EST 1,760.22 1,611.12 1,335
2/16/2019 10 AM EST 1,760.21 1,611.09 1,335
2/16/2019 11 AM EST 1,760.20 1,611.13 1,337
2/16/2019 12 PM EST 1,760.19 1,611.12 1,333
2/16/2019 1 PM EST 1,760.18 1,611.09 1,329
2/16/2019 2 PM EST 1,760.17 1,611.11 1,327
2/16/2019 3 PM EST 1,760.16 1,611.11 1,331
2/16/2019 4 PM EST 1,760.14 1,611.12 1,331
2/16/2019 5 PM EST 1,760.13 1,611.12 1,332
2/16/2019 6 PM EST 1,760.11 1,611.10 1,333
2/16/2019 7 PM EST 1,760.09 1,611.12 1,332
2/16/2019 8 PM EST 1,760.08 1,611.13 1,332
2/16/2019 9 PM EST 1,760.06 1,611.10 1,331
2/16/2019 10 PM EST 1,760.05 1,611.11 1,332
2/16/2019 11 PM EST 1,760.03 1,611.12 1,335
2/17/2019 12 AM EST 1,760.01 1,611.09 1,333
2/17/2019 1 AM EST 1,760.00 1,611.12 1,330
2/17/2019 2 AM EST 1,759.98 1,611.11 1,329
2/17/2019 3 AM EST 1,759.97 1,611.12 1,329
2/17/2019 4 AM EST 1,759.95 1,611.13 1,334
2/17/2019 5 AM EST 1,759.94 1,611.11 1,331
2/17/2019 6 AM EST 1,759.92 1,611.11 1,331
2/17/2019 7 AM EST 1,759.91 1,611.11 1,325
2/17/2019 8 AM EST 1,759.88 1,611.13 1,331
2/17/2019 9 AM EST 1,759.87 1,611.12 1,333
2/17/2019 10 AM EST 1,759.85 1,611.12 1,331
2/17/2019 11 AM EST 1,759.83 1,611.12 1,332
2/17/2019 12 PM EST 1,759.81 1,611.11 1,330
2/17/2019 1 PM EST 1,759.80 1,611.11 1,333
2/17/2019 2 PM EST 1,759.79 1,611.11 1,328
2/17/2019 3 PM EST 1,759.77 1,611.11 1,329
2/17/2019 4 PM EST 1,759.75 1,611.12 1,329
2/17/2019 5 PM EST 1,759.73 1,611.12 1,330
2/17/2019 6 PM EST 1,759.72 1,611.11 1,328
2/17/2019 7 PM EST 1,759.72 1,611.15 1,330
2/17/2019 8 PM EST 1,759.71 1,611.12 1,327
2/17/2019 9 PM EST 1,759.72 1,611.12 1,330
2/17/2019 10 PM EST 1,759.75 1,611.16 1,325
2/17/2019 11 PM EST 1,759.77 1,611.11 1,332
2/18/2019 12 AM EST 1,759.80 1,611.12 1,326
2/18/2019 1 AM EST 1,759.83 1,611.11 1,333
2/18/2019 2 AM EST 1,759.85 1,611.11 1,329
2/18/2019 3 AM EST 1,759.88 1,611.11 1,329
2/18/2019 4 AM EST 1,759.91 1,611.08 1,331
2/18/2019 5 AM EST 1,759.92 1,611.12 1,325
2/18/2019 6 AM EST 1,759.94 1,611.12 1,329
2/18/2019 7 AM EST 1,759.95 1,611.13 1,329
2/18/2019 8 AM EST 1,759.96 1,611.12 1,334
2/18/2019 9 AM EST 1,759.96 1,611.11 1,332
2/18/2019 10 AM EST 1,759.97 1,611.11 1,331
2/18/2019 11 AM EST 1,759.97 1,611.12 1,328
2/18/2019 12 PM EST 1,759.98 1,611.13 1,329
2/18/2019 1 PM EST 1,759.98 1,611.07 1,330
2/18/2019 2 PM EST 1,759.98 1,611.10 1,329
2/18/2019 3 PM EST 1,759.97 1,611.12 1,330
2/18/2019 4 PM EST 1,759.97 1,611.13 1,331
2/18/2019 5 PM EST 1,759.97 1,611.12 1,331
2/18/2019 6 PM EST 1,759.96 1,611.12 1,335
2/18/2019 7 PM EST 1,759.96 1,611.13 1,333
2/18/2019 8 PM EST 1,759.95 1,611.12 1,333
2/18/2019 9 PM EST 1,759.95 1,611.11 1,334

Elevations are in feet above sea level. Discharges are in cubic feet per second and are reported at the end of the hour.